Fairbanks Eiels, AK

6:49 AM AKDT on March 27, 2017 (GMT -0800)
Eielson Air Force Base

Weather History for PAEI - August, 2014

Change the Weather History Date:

Friday, August 8, 2014

  Actual Average Record
Temperature  
Mean Temperature 60 °F -  
Max Temperature 73 °F 67 °F 81 °F (1977)
Min Temperature 47 °F 50 °F 33 °F (1959)
Degree Days  
Heating Degree Days 5    
Growing Degree Days 10 (Base 50)    
Moisture  
Dew Point 42 °F    
Average Humidity 50    
Maximum Humidity 87    
Minimum Humidity 29    
Precipitation  
Precipitation 0.00 in - - ()
Sea Level Pressure  
Sea Level Pressure 29.63 in    
Wind  
Wind Speed 8 mph (ESE)    
Max Wind Speed 24 mph    
Max Gust Speed 32 mph    
Visibility 10 miles    
Events      
Averages and records for this station are not official NWS values.
T = Trace of Precipitation, MM = Missing Value Source: NWS Daily Summary

Daily Weather History Graph

Daily Weather History Graph

Search for Another Location

Airport or City:

Trip Planner

Search our weather history database for the weather conditions in past years. The results will help you decide how hot, cold, wet, or windy it might be!

Date:

Astronomy

Aug. 08, 2014 Rise Set
Actual Time 5:13 AM AKDT 10:31 PM AKDT
Civil Twilight 3:55 AM AKDT 11:48 PM AKDT
Nautical Twilight Sun does not rise Sun does not rise
Astronomical Twilight Sun does not rise Sun does not rise
Moon 8:54 PM AKDT (8/8) 2:41 AM AKDT (8/8)
Length of Visible Light 19h 52m
Length of Day
17h 17m
Waxing Gibbous, 94% of the Moon is Illuminated
Aug 8
Waxing Gibbous
Aug 10
Full
Aug 17
Last Quarter
Aug 25
New
Sep 2
First Quarter

Hourly Weather History & Observations

Time (AKDT) Temp. Dew Point Humidity Pressure Visibility Wind Dir Wind Speed Gust Speed Precip Events Conditions
12:58 AM 52.3 °F 45.9 °F 79% 29.64 in 10.0 mi Calm Calm - 0.00 in   Clear
1:58 AM 47.7 °F 43.9 °F 87% 29.65 in 10.0 mi Calm Calm - N/A   Clear
2:58 AM 48.0 °F 43.0 °F 83% 29.65 in 10.0 mi NE 2.3 mph - N/A   Clear
3:58 AM 50.7 °F 39.4 °F 65% 29.64 in 10.0 mi ENE 3.5 mph - N/A   Clear
4:58 AM 49.8 °F 41.9 °F 74% 29.65 in 10.0 mi NE 3.5 mph - N/A   Clear
5:58 AM 51.6 °F 40.3 °F 65% 29.64 in 10.0 mi Variable 2.3 mph - N/A   Clear
6:58 AM 50.4 °F 44.8 °F 81% 29.64 in 10.0 mi NNW 2.3 mph - N/A   Clear
7:58 AM 60.1 °F 42.8 °F 53% 29.64 in 10.0 mi SE 9.2 mph - N/A   Clear
8:44 AM 64.4 °F 41.0 °F 42% 29.63 in 10.0 mi SE 15.0 mph - N/A   Clear
8:58 AM 64.0 °F 40.6 °F 42% 29.64 in 10.0 mi SE 13.8 mph - N/A   Clear
9:58 AM 66.0 °F 40.1 °F 39% 29.63 in 10.0 mi SE 21.9 mph 31.1 mph N/A   Clear
10:58 AM 67.5 °F 40.5 °F 37% 29.63 in 10.0 mi ESE 20.7 mph 27.6 mph N/A   Clear
11:58 AM 69.1 °F 41.5 °F 37% 29.63 in 10.0 mi SE 23.0 mph 29.9 mph N/A   Clear
12:58 PM 70.9 °F 41.4 °F 34% 29.64 in 10.0 mi SE 19.6 mph - N/A   Clear
1:58 PM 72.3 °F 41.4 °F 33% 29.63 in 10.0 mi SE 16.1 mph - N/A   Clear
2:58 PM 72.7 °F 39.2 °F 30% 29.63 in 10.0 mi ESE 24.2 mph 32.2 mph N/A   Clear
3:58 PM 73.2 °F 40.3 °F 30% 29.63 in 10.0 mi SE 18.4 mph 29.9 mph N/A   Clear
4:58 PM 73.2 °F 39.4 °F 29% 29.62 in 10.0 mi SE 19.6 mph 26.5 mph N/A   Clear
5:58 PM 73.0 °F 39.6 °F 30% 29.61 in 10.0 mi SE 21.9 mph 26.5 mph N/A   Clear
6:58 PM 72.5 °F 40.6 °F 32% 29.61 in 10.0 mi SE 12.7 mph - N/A   Clear
7:58 PM 71.6 °F 39.6 °F 31% 29.61 in 10.0 mi ESE 15.0 mph - N/A   Clear
8:58 PM 69.6 °F 41.2 °F 36% 29.61 in 10.0 mi East 10.4 mph - N/A   Clear
9:58 PM 66.4 °F 41.7 °F 41% 29.62 in 10.0 mi ESE 5.8 mph - N/A   Clear
10:58 PM 56.7 °F 45.3 °F 66% 29.63 in 10.0 mi SE 3.5 mph - N/A   Clear
11:58 PM 53.1 °F 45.0 °F 74% 29.63 in 10.0 mi North 2.3 mph - N/A   Clear